Dewpoint
56 56 56 56 55 55 55 55 55 56 56 56 55 55 55 55 55 55 54 53 53 52 51 49 52 49 34 24 25 33 39 39 38 37 34 30 22 22 17 21 21 21 22 24 25 25 24
56 56 55 55 55 55 54 53 55 56 56 56 55 55 54 54 54 54 52 51 51 49 48 49 51 41 31 21 30 33 36 37 36 34 31 32 27 25 22 23 21 22 23 25 26 25 24
55 55 55 55 55 55 54 54 54 55 55 55 55 54 54 54 53 53 52 49 49 49 45 46 47 37 25 23 31 32 34 35 34 33 29 30 31 25 24 22 25 26 23 24 21 19 22
55 55 55 55 55 55 55 55 54 55 54 54 55 55 54 53 52 52 50 46 45 45 44 43 41 31 23 29 32 31 33 34 34 31 29 27 31 26 23 25 22 21 23 22 19 21 22
55 55 55 55 54 54 54 54 54 54 54 54 54 55 53 53 51 49 48 44 43 44 42 44 30 30 23 30 29 30 34 31 33 31 29 24 30 24 25 20 16 16 16 19 19 21 21
55 55 55 55 54 53 53 53 54 54 54 54 54 55 54 52 50 47 45 42 37 39 38 37 25 27 25 25 29 30 33 33 30 31 31 30 30 26 24 24 23 18 17 17 18 21 22
55 55 55 55 54 53 53 53 54 54 54 54 54 54 54 51 47 46 39 40 35 31 28 26 25 25 25 28 31 30 30 31 31 29 25 29 24 20 23 22 22 21 18 17 19 21 20
56 56 56 56 55 54 53 53 54 54 53 54 54 54 54 49 47 45 46 33 36 39 21 27 25 25 26 28 27 27 32 28 28 22 26 25 21 25 25 24 21 19 17 17 19 21 21
57 56 56 56 55 55 54 54 54 54 53 54 54 54 53 49 45 43 40 41 46 45 31 25 25 26 24 28 25 25 30 29 27 25 26 27 24 25 23 23 21 18 16 19 19 23 24
57 57 56 56 56 56 55 54 54 54 53 54 54 54 52 47 38 39 38 44 46 47 29 27 25 27 27 27 26 29 30 29 26 25 25 23 25 24 22 24 21 19 25 22 22 20 13
57 57 56 56 56 56 55 55 54 54 53 53 53 53 50 49 40 37 42 44 45 45 11 26 25 27 27 27 27 27 30 30 25 23 29 27 25 25 24 24 23 22 24 22 23 22 22
57 57 56 56 56 56 56 55 54 54 53 53 53 53 50 39 41 41 44 46 45 25 11 23 26 25 26 27 26 27 29 30 29 26 27 27 30 26 24 25 24 24 25 24 24 23 16
58 57 57 56 56 56 56 55 55 54 53 53 54 53 49 40 40 43 46 44 15 21 22 22 24 26 28 26 26 26 26 25 26 28 28 26 25 25 25 25 26 24 23 16 17 20 13
55 56 58 57 56 56 56 56 55 54 53 53 53 52 45 38 44 45 43 30 22 29 22 25 23 25 27 27 26 26 26 25 25 25 29 28 23 24 25 24 21 22 21 16 14 13 17
52 54 55 57 57 57 56 56 55 54 52 54 51 49 42 44 45 45 36 22 23 32 24 22 22 25 25 26 27 26 24 24 24 24 26 24 25 24 25 26 25 22 21 21 16 20 18
51 52 53 55 58 57 57 56 55 54 52 54 47 46 46 43 43 41 32 26 31 26 25 24 21 24 26 27 26 26 24 24 24 25 25 23 24 24 24 27 25 23 22 19 20 16 16
51 51 51 52 54 57 57 56 55 54 53 54 46 43 44 43 42 37 25 28 26 26 26 23 24 24 27 27 29 26 24 24 25 25 25 25 25 24 24 24 24 23 22 20 19 19 16
49 49 51 51 52 53 57 56 55 54 53 50 46 34 43 42 31 35 31 28 26 25 26 25 27 27 27 29 28 25 23 26 25 26 25 28 26 25 25 23 23 23 23 20 18 19 21
48 48 49 51 51 52 53 57 55 54 53 47 41 42 45 43 30 32 28 26 26 25 25 27 27 29 28 29 28 26 24 26 25 26 27 27 27 26 26 23 22 21 21 21 22 24 20
46 48 48 49 51 51 51 54 56 54 54 47 42 33 44 38 39 34 28 27 24 28 27 28 29 28 29 29 30 28 26 26 26 27 25 29 30 28 24 26 29 26 22 21 21 24 24
45 47 48 48 49 51 51 51 55 54 54 47 42 33 40 37 34 33 29 28 27 25 27 28 28 28 29 29 29 29 28 27 27 29 25 26 28 28 29 29 29 29 29 28 23 24 25
44 45 47 48 48 49 51 51 51 54 53 47 40 36 37 34 35 34 32 30 29 28 26 26 28 28 29 30 30 30 28 28 29 29 26 26 28 28 28 29 29 28 28 29 29 28 28
42 44 45 47 48 49 50 50 50 52 52 46 44 40 38 35 33 32 32 31 31 30 29 29 28 30 29 32 32 31 31 31 30 28 27 26 28 28 27 25 26 24 26 26 27 28 28
40 43 44 45 47 48 49 50 50 50 53 48 44 40 37 25 35 33 35 34 32 32 30 31 29 31 30 30 31 33 30 29 29 27 29 27 29 29 27 26 22 23 18 22 24 25 26
38 41 43 44 46 46 48 49 49 49 50 51 48 41 41 37 35 32 34 36 35 34 31 31 30 32 31 35 34 34 34 32 25 22 25 28 29 28 27 24 24 25 19 18 17 17 17
38 40 43 44 45 46 48 49 49 49 49 50 50 45 44 40 34 35 32 37 34 33 32 30 31 33 33 35 35 32 28 30 26 21 20 25 29 30 27 24 22 22 18 17 16 17 17
39 39 43 43 44 46 46 47 49 49 49 49 51 49 44 40 39 38 36 36 37 34 33 31 30 31 33 34 33 33 31 32 28 25 21 24 26 25 26 25 25 26 17 17 18 18 17
39 39 40 44 44 44 44 46 48 48 49 48 47 51 47 41 39 41 38 39 40 38 33 34 33 32 31 33 33 33 32 32 32 27 23 24 24 23 24 23 22 17 16 18 18 18 22
37 39 39 44 43 44 43 45 47 48 48 49 44 51 50 44 40 41 41 40 40 41 37 34 36 33 33 33 33 33 33 32 31 29 25 27 27 25 24 23 20 17 19 22 22 22 21
Wind_Speed
19 20 20 21 22 23 23 23 23 22 23 22 18 16 13 10 9 8 8 7 8 8 9 10 10 8 2 5 2 9 12 11 6 3 4 3 3 2 5 7 7 9 5 6 6 6 5
18 19 20 21 21 22 23 23 23 23 24 23 21 18 15 13 10 7 6 6 8 9 11 11 8 5 1 3 4 9 8 7 12 8 7 7 3 3 7 4 4 5 9 8 4 5 4
16 17 19 20 21 22 23 23 22 22 22 24 22 20 16 14 13 9 6 6 7 10 11 11 8 2 7 2 3 7 7 3 4 5 3 4 4 5 4 5 5 11 7 4 2 2 2
16 17 18 19 19 20 21 22 22 22 22 23 23 20 18 15 13 11 9 7 8 10 12 10 6 1 3 2 2 10 9 1 6 4 3 3 7 7 4 4 4 2 4 1 0 4 2
15 16 17 18 19 20 21 21 22 22 22 23 23 21 19 17 12 11 10 8 10 10 9 10 2 1 1 1 2 4 4 2 7 2 2 3 3 5 3 4 2 1 0 3 1 0 1
14 16 16 17 18 20 20 21 22 23 23 23 23 22 19 17 14 10 11 8 7 10 3 3 3 1 2 3 4 5 2 3 1 2 2 3 4 4 6 3 3 2 0 2 2 2 1
16 15 16 17 18 19 20 20 21 23 23 23 23 23 20 18 13 11 7 3 2 2 8 3 2 1 1 6 3 7 5 4 2 1 3 3 6 6 4 3 1 1 0 3 1 2 4
16 17 16 16 17 18 19 20 20 21 23 24 24 24 22 19 15 9 2 3 2 1 3 0 1 2 0 1 1 12 14 2 2 3 3 4 5 4 1 2 0 0 2 3 4 1 5
14 16 17 17 17 17 18 19 19 20 22 23 24 24 23 21 14 4 4 2 2 5 1 1 1 1 1 3 3 6 6 3 4 5 1 5 4 2 2 5 5 2 2 1 5 8 7
14 14 15 16 17 18 17 18 20 20 21 22 24 25 24 23 3 2 3 2 2 1 1 3 3 1 1 1 2 2 2 1 4 5 5 5 1 1 1 3 3 2 2 3 5 6 3
15 14 14 15 16 17 19 18 19 20 20 22 23 25 22 11 3 1 2 0 1 1 4 2 1 1 1 3 1 6 1 2 4 4 2 1 1 1 1 1 1 2 4 3 2 3 4
16 15 15 14 15 16 17 19 19 20 20 22 22 23 22 4 2 1 1 2 2 3 7 2 2 3 2 2 2 1 3 5 2 4 9 3 1 2 1 2 2 4 2 1 2 2 3
19 19 16 15 15 16 17 18 18 20 21 22 24 21 11 4 3 1 2 0 2 4 2 3 3 2 3 2 2 2 4 5 2 4 2 2 1 1 2 1 2 3 3 4 3 2 5
20 20 18 16 16 16 16 17 17 18 20 23 26 23 5 2 3 1 1 1 6 4 5 2 1 3 4 4 1 3 5 3 6 2 3 5 4 2 2 1 1 2 2 2 5 4 5
22 20 21 20 19 17 16 17 16 17 18 20 24 5 4 5 5 2 2 5 7 7 5 9 3 4 4 3 3 4 3 5 2 1 5 6 3 0 2 0 2 1 3 3 2 1 2
19 21 20 22 19 17 17 16 16 16 17 16 14 6 5 7 5 3 3 7 5 4 6 5 10 8 8 8 7 8 8 4 5 3 0 5 2 4 2 0 0 1 2 2 1 4 6
20 20 21 21 22 20 17 16 14 14 15 13 5 5 2 4 3 2 8 8 5 4 5 9 8 8 6 8 8 7 7 2 6 5 3 4 3 3 3 7 8 3 3 3 2 5 5
18 20 22 21 20 23 20 17 14 11 13 2 4 5 5 6 6 5 9 5 5 7 3 4 3 4 9 10 7 7 11 4 10 8 7 4 4 5 5 1 1 2 5 6 5 5 4
22 19 21 23 20 21 23 19 15 9 2 3 4 5 3 3 9 11 2 2 3 8 7 8 9 5 3 9 6 7 7 3 8 7 9 8 3 2 2 1 1 4 6 7 3 4 12
23 22 19 20 22 20 21 21 18 12 8 3 4 5 3 4 4 5 8 7 7 4 4 5 6 5 6 5 2 8 8 5 6 3 4 3 5 8 8 2 4 6 10 14 15 10 8
26 24 21 19 22 21 21 19 20 17 14 6 5 8 5 6 12 13 10 8 11 10 6 7 5 12 12 8 8 8 7 6 3 5 2 3 6 5 12 13 13 18 18 17 23 22 17
28 27 25 21 19 22 20 20 25 21 18 8 5 5 2 5 4 11 16 12 17 9 14 10 12 20 18 9 13 16 14 10 8 7 8 4 4 0 11 13 11 18 25 21 23 27 28
30 28 27 24 22 19 19 18 18 15 21 7 8 3 1 6 5 10 11 14 21 13 11 6 20 11 20 10 7 7 8 8 15 14 14 10 8 4 6 2 9 20 17 18 10 10 14
30 29 29 26 26 20 18 18 18 20 25 9 7 6 7 12 12 14 6 13 19 22 12 7 8 10 6 20 16 14 17 12 10 7 7 11 10 6 5 2 6 6 2 7 19 12 16
28 29 30 29 24 23 19 17 17 20 26 16 8 8 7 9 13 17 19 7 4 9 5 9 2 2 19 6 5 4 1 1 1 4 2 3 8 4 5 8 13 14 5 7 9 7 4
29 27 33 31 25 22 19 19 18 20 23 18 19 10 7 5 14 16 14 14 11 11 6 3 2 3 2 4 5 9 10 7 5 2 5 3 2 8 6 6 8 2 5 6 6 11 3
30 25 35 31 29 23 20 20 20 18 21 16 10 21 11 10 12 7 10 16 10 9 9 7 8 5 2 6 7 9 9 6 9 10 9 8 4 19 17 11 12 8 12 6 3 5 7
28 26 33 32 28 23 20 21 22 19 20 12 15 26 25 13 17 7 12 9 6 11 17 10 9 3 5 11 10 8 9 14 7 9 11 16 16 10 8 9 16 15 9 9 6 7 11
29 27 29 35 26 25 21 23 25 22 18 16 16 16 22 10 8 6 5 2 2 4 11 17 6 11 15 9 9 6 6 8 10 9 6 8 12 10 18 11 1 20 3 7 6 9 5
Wind_Direction
23 23 24 20 17 17 15 14 14 14 16 13 11 7 0 358 347 340 333 325 319 314 317 321 332 337 325 57 22 333 345 349 1 345 30 11 76 85 118 113 74 95 116 79 119 102 73
21 19 21 16 15 14 14 12 9 11 13 13 8 5 360 351 344 332 317 315 309 310 313 315 325 329 32 68 287 344 350 4 15 36 28 41 68 79 85 62 77 116 112 131 141 106 83
20 18 15 15 10 9 9 8 7 7 9 9 7 2 358 351 342 326 312 300 300 299 304 311 319 316 54 124 5 5 3 349 5 21 71 26 341 89 106 101 117 131 97 97 70 34 116
11 11 9 8 8 6 4 2 3 5 5 5 4 1 353 349 346 330 311 292 292 297 304 308 325 337 83 276 334 16 358 95 3 33 76 355 22 81 67 112 78 101 105 107 310 9 188
359 1 2 1 1 2 1 359 358 359 0 0 359 358 353 345 348 338 313 302 295 295 280 296 346 170 19 173 35 346 32 346 315 299 2 340 45 92 56 87 59 207 348 157 223 19 277
349 350 352 353 355 355 357 356 353 353 355 355 353 353 351 348 334 337 318 281 291 320 285 268 277 90 38 320 327 336 329 328 338 333 23 36 58 85 36 77 200 201 124 346 120 238 221
335 341 342 344 347 349 350 351 350 348 349 351 351 350 346 346 342 343 2 357 23 341 41 86 332 108 11 312 322 352 353 324 195 62 126 43 98 111 108 78 167 261 307 313 307 191 311
327 329 333 335 340 341 343 343 346 345 344 345 347 347 345 344 330 335 16 81 77 115 89 299 120 98 195 29 22 355 357 357 214 133 111 57 125 158 266 335 265 219 286 338 289 187 337
317 321 324 326 331 334 337 337 339 342 342 342 342 344 340 336 332 31 73 93 58 3 156 201 145 90 267 16 74 335 7 336 66 61 46 147 141 162 93 43 57 55 145 333 272 314 289
304 309 315 319 323 327 328 332 333 337 339 339 339 339 341 336 71 334 70 124 2 61 355 199 203 183 88 66 52 282 359 90 51 120 88 82 169 162 132 90 27 274 148 311 311 350 300
297 300 304 311 317 320 322 327 329 331 334 334 335 339 339 345 313 320 132 292 97 63 304 40 202 237 159 117 111 11 343 69 101 96 134 163 140 86 109 80 24 255 312 304 337 328 328
291 294 296 301 307 312 316 320 325 326 331 330 331 336 337 15 49 283 274 284 119 68 253 160 134 193 131 83 80 328 25 48 90 93 57 100 10 61 159 281 224 306 358 79 356 24 289
317 289 288 294 300 305 308 313 319 322 327 326 324 329 319 301 289 234 317 230 116 207 22 210 185 182 138 127 88 93 69 50 143 137 175 77 43 75 23 322 335 9 34 321 321 312 261
347 346 289 290 289 293 299 304 313 320 324 325 323 317 260 220 184 202 99 104 204 210 202 137 168 151 195 156 146 150 137 143 39 112 134 184 251 189 5 95 201 46 119 180 281 259 282
337 344 339 297 286 287 291 299 307 314 321 326 326 337 268 196 171 132 140 201 219 201 161 158 131 207 205 193 173 160 129 159 168 80 184 169 232 179 64 343 186 158 173 141 257 297 281
334 333 340 334 282 281 284 291 299 308 317 336 327 303 245 161 149 124 180 234 224 192 148 157 193 188 204 189 174 189 183 180 163 175 248 175 179 201 175 32 307 196 148 158 73 282 268
334 330 328 338 336 286 275 278 285 298 310 328 298 297 165 156 132 143 213 225 196 198 175 175 203 187 201 180 187 181 174 192 182 175 163 142 175 164 140 204 183 166 191 191 191 187 242
316 327 329 325 329 331 276 266 270 287 314 19 298 257 164 148 194 213 219 206 150 183 181 191 215 194 192 170 172 184 190 224 180 167 163 165 155 209 221 322 346 186 190 178 183 224 231
307 308 317 325 319 323 328 257 253 258 286 327 253 258 185 168 216 219 231 215 197 167 197 178 205 199 189 175 175 165 169 154 155 164 169 175 183 242 271 307 310 215 205 212 166 144 231
300 301 305 317 317 320 321 314 234 223 194 168 279 257 207 194 243 208 187 217 214 206 215 191 176 143 155 181 147 166 162 172 169 149 140 160 196 214 229 148 148 226 207 215 212 230 233
304 294 294 299 312 310 314 319 266 209 186 167 217 247 216 216 237 212 192 191 188 194 217 191 202 210 175 174 164 185 158 144 139 156 135 170 230 260 262 272 275 266 256 235 226 233 238
304 298 287 288 291 306 307 311 337 202 173 202 221 225 269 258 236 206 208 219 207 192 175 209 221 204 200 187 189 187 165 178 185 173 172 179 226 287 283 275 277 271 263 245 236 245 248
307 298 294 285 280 290 299 307 299 270 168 186 214 233 178 263 219 192 209 207 213 169 210 215 208 193 205 201 135 101 116 157 163 164 177 171 171 160 257 351 330 287 262 215 205 222 223
307 299 294 281 281 276 289 293 304 311 215 186 189 161 189 244 225 217 222 215 215 199 210 193 189 191 157 118 105 76 68 79 99 86 153 165 159 176 266 328 247 251 195 189 209 236 219
300 305 294 284 276 278 279 280 290 312 322 219 199 179 189 244 227 234 238 224 163 153 138 156 121 230 152 121 109 124 59 126 158 42 96 114 155 205 239 214 295 287 204 180 189 263 241
299 302 303 288 273 275 283 277 277 289 303 289 208 180 192 233 240 220 222 199 187 178 138 124 38 11 135 130 149 191 206 201 208 197 21 119 122 199 177 239 265 275 179 145 129 268 183
297 302 301 286 278 270 276 292 268 279 283 291 246 188 190 221 246 203 201 207 165 166 162 140 161 165 8 159 171 183 215 175 197 191 173 151 190 216 222 240 273 240 165 151 189 262 148
295 295 294 293 283 268 279 285 285 273 284 310 295 188 197 211 233 224 221 212 177 170 185 153 121 196 159 191 192 190 203 206 196 173 178 180 180 193 192 221 270 154 135 195 156 107 132
291 292 293 304 282 266 273 276 280 270 273 279 275 235 189 210 223 181 220 227 225 183 160 175 194 165 173 172 201 162 181 178 195 221 170 225 198 195 194 215 196 178 136 137 143 145 151